Regional Weather Roundup
Issued by NWS

Home | Current Version | Previous Version | Graphics & Text | Print | Product List | Glossary On
Versions: 1 2 3 4 5 6 7 8 9 10 11 12 13 14 15 16 17 18 19 20 21 22 23 24 25 26 27 28 29 30 31 32 33 34 35 36 37 38 39 40 41 42 43 44 45 46 47 48 49 50
000
ASUS43 KIND 251900
RWRIN

WEATHER ROUNDUP FOR INDIANA
NATIONAL WEATHER SERVICE INDIANAPOLIS IN
300 PM EDT TUE JUL 25 2017

NOTE: "FAIR" INDICATES FEW OR NO CLOUDS BELOW 12,000 FEET WITH NO
SIGNIFICANT WEATHER AND/OR OBSTRUCTIONS TO VISIBILITY.

* - STATION DOES NOT REPORT WEATHER SUCH AS PRECIPITATION OR FOG.

+ - STATION NOT QUALITY CONTROLLED BY THE NATIONAL WEATHER SERVICE.
    USE DATA WITH CAUTION...ESPECIALLY DEWPOINT AND RELATIVE
    HUMIDITY OBSERVATIONS.

INZ001>003-010>013-019-020-252000-
NORTHWEST INDIANA

CITY           SKY/WX    TMP DP  RH WIND       PRES   REMARKS
MICHIGAN CITY+ SUNNY     79  54  41 SE7       30.22S
MONTICELLO +   SUNNY     76  55  47 E3        30.20S
RENSSELAER +   SUNNY     77  52  41 E5        30.20F

$$

LMZ046-743>745-252000-
SOUTHERN LAKE MICHIGAN

STATION/POSITION TIME  TEMP    WIND        PRES    WAVE
                       AIR SEA DIR/SP/G            HT
                 (UTC) (F)     (DEG/KT/KT) (MB)    (FT)
BURNS HARBOR     1840   78     200/  5/ 10 1023.0F
MICHIGAN CITY    1830   75     100/  8/ 11   N/A
5NW MICH CITY    1850   75 74  160/  6/ 10   N/A     1

$$

INZ004-005-014>016-021>024-252000-
NORTH CENTRAL INDIANA

CITY           SKY/WX    TMP DP  RH WIND       PRES   REMARKS
GOSHEN         SUNNY     78  50  37 SE7       30.22F
SOUTH BEND     SUNNY     78  54  43 SE8       30.22F

$$

INZ006>009-017-018-025>027-252000-
NORTHEAST INDIANA

CITY           SKY/WX    TMP DP  RH WIND       PRES   REMARKS
FORT WAYNE     MOSUNNY   76  55  48 E5        30.23R
KENDALLVILLE + SUNNY     76  53  45 E3        30.23F

$$

INZ028-029-035-036-043>045-051>053-252000-
WEST CENTRAL INDIANA

CITY           SKY/WX    TMP DP  RH WIND       PRES   REMARKS
LAFAYETTE      SUNNY     78  58  49 E6        30.18S
TERRE HAUTE    MOSUNNY   81  64  56 NE5       30.16S

$$

INZ030>032-037>040-046>048-054>057-064-065-252000-
CENTRAL INDIANA

CITY           SKY/WX    TMP DP  RH WIND       PRES   REMARKS
COLUMBUS       SUNNY     77  54  44 NE7       30.17F
GREENWOOD *+   SUNNY    N/A N/A N/A E9        30.19S
INDIANAPOLIS   MOSUNNY   78  57  48 E9        30.18R
-EAGLE CREEK   SUNNY     79  57  46 E8        30.18S
KOKOMO +       SUNNY     76  58  53 NE10      30.22S
MT COMFORT *+  SUNNY     77  61  57 E7        30.19F
SHELBYVILLE    SUNNY     79  60  52 E8        30.18S

$$

INZ033-034-041-042-049-050-058-059-252000-
EAST CENTRAL INDIANA

CITY           SKY/WX    TMP DP  RH WIND       PRES   REMARKS
MUNCIE         SUNNY     78  56  46 E8        30.21S
RICHMOND +     SUNNY     73  61  64 E7        30.21F

$$

INZ060-061-067>069-081>083-085>088-252000-
SOUTHWEST INDIANA

CITY           SKY/WX    TMP DP  RH WIND       PRES   REMARKS
EVANSVILLE     MOSUNNY   87  68  52 NE9       30.11F
HUNTINGBURG *+ MOSUNNY   83  70  64 E6        30.13S

$$

INZ062-063-066-070>080-084-089>092-252000-
SOUTH CENTRAL AND SOUTHEAST INDIANA

CITY           SKY/WX    TMP DP  RH WIND       PRES   REMARKS
BLOOMINGTON    PTSUNNY   83  63  50 MISG      30.16F
MADISON *+     SUNNY     81  59  47 N5        30.19S
SEYMOUR +      SUNNY    N/A N/A N/A NE5       30.15F

$$




USA.gov is the U.S. government's official web portal to all federal, state and local government web resources and services.